SINOD-D 1

Last updated on Sun Dec 14 2025 00:03:49 GMT+0000 (Coordinated Universal Time)

1 40968U 15058E 25346.71855666 .00009323 00000+0 76142-3 0 9999 2 40968 64.7753 122.0772 0123281 128.1427 233.0875 14.94084016 88780
UTC large
Height (km)
Speed (km/s)
/
Latitude / Longitude
Inclination (degrees)
Orbital Period (minutes)
Azimuth
Elevation
Range (km)
Doppler Factor

Next 0 passes for location: London (51.5072 / 0.1276)

Sorry there are no passes over London.